AirNav   Everest Fuels
 
 1432 users online  

5NC3 Reed Mine Airport
Locust, North Carolina, USA

GOING TO LOCUST?


FAA INFORMATION EFFECTIVE 16 JULY 2020

Location

FAA Identifier: 5NC3
Lat/Long: 35-17-57.7900N 080-27-28.2000W
35-17.963167N 080-27.470000W
35.2993861,-80.4578333
(estimated)
Elevation: 581 ft. / 177 m (estimated)
From city: 3 miles NNW of LOCUST, NC
Time zone: UTC -4 (UTC -5 during Standard Time)
Zip code: 28097

Airport Operations

Airport use: Private use. Permission required prior to landing
Activation date: 01/2018
Control tower: no
ARTCC: ATLANTA CENTER
FSS: RALEIGH FLIGHT SERVICE STATION
Attendance: 
Segmented circle: no

Airport Communications

WX AWOS-3 at JQF (13 nm NW): 133.675 (704-785-2145)
WX AWOS-3 at VUJ (17 nm NE): 128.175 (704-986-2097)
WX ASOS at EQY (19 nm SW): 135.775 (704-283-5185)

Nearby radio navigation aids

VOR radial/distance  VOR name  Freq  Var
CLTr080/25.1CHARLOTTE VOR/DME115.0005W
CTFr350/40.0CHESTERFIELD VOR/DME108.2003W

 
NDB name  Hdg/Dist  Freq  Var  ID
STONIA085/34.926006WGHJ --. .... .---
LANCASTER037/39.840007WLKR .-.. -.- .-.

Airport Services

Runway Information

Runway 3/21

Dimensions: 2000 x 75 ft. / 610 x 23 m
Surface: turf, in fair condition
RUNWAY 3  RUNWAY 21
Traffic pattern: leftleft

Airport Ownership and Management from official FAA records

Ownership: Privately-owned
Owner: CHRISTOPHER LOGAN
9659 WIDESPREAD AVE NW
CONCORD, NC 28027
Phone 704-773-1676
Manager: CHRISTOPHER LOGAN
9659 WIDESPREAD AVE NW
CONCORD, NC 28027
Phone 704-773-1676

Additional Remarks

FOR CD CTC ATLANTA ARTCC AT 770-210-7692.

Instrument Procedures

There are no published instrument procedures at 5NC3.

Some nearby airports with instrument procedures:

KJQF - Concord-Padgett Regional Airport (13 nm NW)
KVUJ - Stanly County Airport (17 nm NE)
KEQY - Charlotte-Monroe Executive Airport (19 nm SW)
KRUQ - Mid-Carolina Regional Airport (21 nm N)
KCLT - Charlotte/Douglas International Airport (25 nm W)
 
Loc | Ops | Rwys | IFR | FBO | Links
Com | Nav | Svcs | Stats | Notes
Aerial photo
No photo
 
Airport distance calculator
Flying to Reed Mine Airport? Find the distance to fly.

From to 5NC3

Sunrise and sunset
Times for 05-Aug-2020
 Local
(UTC-4)
 Zulu
(UTC)
Morning civil twilight06:0810:08
Sunrise06:3510:35
Sunset20:2000:20
Evening civil twilight20:4800:48

Current date and time
Zulu (UTC)  05-Aug-2020 20:21:30
Local (UTC-4)  05-Aug-2020 16:21:30
 
METAR
KJQF 
14nm W 
051955Z 09004KT 10SM SCT050 32/19 A3004
KVUJ 
17nm NE 
051955Z AUTO 16007KT 10SM SCT037 SCT042 32/23 A3006 RMK AO2 LTG DSNT SW T03170226
KEQY 
19nm SW 
051953Z AUTO VRB03KT 10SM CLR 32/22 A3000 RMK AO2 SLP156 T03170222
KRUQ 
21nm N 
051955Z AUTO 15005KT 10SM SCT048 31/20 A3002 RMK AO2 T03080202
KCLT 
25nm W 
051952Z VRB04KT 10SM FEW050 SCT140 SCT250 32/19 A3001 RMK AO2 SLP153 CB DSNT S-SW T03220189
KAFP 
25nm SE 
051435Z AUTO 15007KT 4SM HZ SCT011 SCT017 27/23 A3009 RMK AO2 T02710228
TAF
KCLT 
25nm W 
051740Z 0518/0624 15008KT P6SM SCT045 TEMPO 0520/0524 VRB15G25KT 4SM TSRA OVC025CB FM060000 14005KT P6SM VCSH SCT060 BKN120 FM060900 VRB03KT 5SM BR BKN012 FM061300 VRB03KT P6SM SCT025 FM061700 20006KT P6SM SCT040 PROB30 0617/0623 4SM TSRA BKN035CB
NOTAMs
Click for the latest NOTAMs
NOTAMs are issued by the DoD/FAA and will open in a separate window not controlled by AirNav.

 

 
 

Would you like to see your business listed on this page?

 If your business provides an interesting product or service to pilots, flight crews, aircraft, or users of the Reed Mine Airport, you should consider listing it here.  To start the listing process, click on the button below
 
Add a business
 

Other Pages about Reed Mine Airport

Update a link
 
Copyright © AirNav, LLC. All rights reserved. Privacy Policy  Contact